Location: Ciochowice
(50.4289°N, 18.5217°E)
Time: 14:55:58
(UTC+01:00)

ISS - Pass Details

Date: 29 January 2019
Orbit: 403 x 411 km, 51.6° (Epoch: 18 February)

Event Time Altitude Azimuth Distance (km) Brightness Sun altitude
Rises 18:16:42 0° 261° (W) 2,333 1.9 -16.5°
Reaches altitude 10° 18:18:47 10° 263° (W) 1,474 0.4 -16.8°
Maximum altitude 18:22:05 78° 350° (N) 424 -3.8 -17.3°
Enters shadow 18:22:46 53° 64° (ENE) 512 -3.7 -17.4°
